Weather History for Tracy, MN

Change the Weather History Date:

Thursday, March 6, 2014

  Actual Average (KMML) Record (KMML)
Temperature  
Mean Temperature 26 °F -  
Max Temperature 34 °F 35 °F 74 °F (1987)
Min Temperature 18 °F 16 °F -9 °F (1984)
Degree Days  
Heating Degree Days 39    
Moisture  
Dew Point 23 °F    
Average Humidity 84    
Maximum Humidity 89    
Minimum Humidity 77    
Precipitation  
Precipitation 0.01 in - - ()
Sea Level Pressure  
Sea Level Pressure 29.90 in    
Wind  
Wind Speed 19 mph (South)    
Max Wind Speed 28 mph    
Max Gust Speed 38 mph    
Visibility 4 miles    
Events Snow    
Averages and records for this station are not official NWS values.
T = Trace of Precipitation, MM = Missing Value Source: NWS Daily Summary

Daily Weather History Graph

Daily Weather History Graph

Search for Another Location

Airport:

Trip Planner

Search our weather history database for the weather conditions in past years. The results will help you decide how hot, cold, wet, or windy it might be!

Date:

Astronomy

Mar. 06, 2014 Rise Set
Actual Time 6:50 AM CST 6:17 PM CST
Civil Twilight 6:21 AM CST 6:46 PM CST
Nautical Twilight 5:48 AM CST 7:19 PM CST
Astronomical Twilight 5:14 AM CST 7:53 PM CST
Moon 9:46 AM CST (3/6) No Moon Set
Length of Visible Light 12h 24m
Length of Day
11h 26m
Waxing Crescent, 32% of the Moon is Illuminated
Mar 6
Waxing Crescent
Mar 8
First Quarter
Mar 16
Full
Mar 23
Last Quarter
Mar 30
New

Hourly Weather History & Observations

Time (CST) Temp. Windchill Dew Point Humidity Pressure Visibility Wind Dir Wind Speed Gust Speed Precip Events Conditions
12:13 AM 20.1 °F 5.4 °F 16.9 °F 87% 30.20 in 5.0 mi South 17.3 mph 23.0 mph N/A   Overcast
12:33 AM 20.1 °F 5.0 °F 17.2 °F 89% 30.19 in 4.0 mi South 18.4 mph 27.6 mph N/A   Overcast
12:52 AM 19.9 °F 3.9 °F 16.7 °F 87% 30.19 in 3.0 mi South 20.7 mph 27.6 mph N/A   Overcast
1:12 AM 19.2 °F 3.0 °F 15.8 °F 87% 30.18 in 4.0 mi South 20.7 mph 29.9 mph N/A   Overcast
1:32 AM 18.7 °F 4.6 °F 15.4 °F 87% 30.16 in 5.0 mi South 15.0 mph 24.2 mph N/A   Scattered Clouds
1:53 AM 18.5 °F 3.3 °F 14.9 °F 86% 30.14 in 4.0 mi South 17.3 mph 27.6 mph N/A   Clear
2:12 AM 18.7 °F 3.6 °F 15.3 °F 87% 30.14 in 4.0 mi South 17.3 mph 26.5 mph N/A   Clear
2:32 AM 18.9 °F 3.3 °F 15.3 °F 86% 30.13 in 5.0 mi South 18.4 mph 25.3 mph N/A   Clear
2:52 AM 18.9 °F 3.8 °F 15.3 °F 86% 30.13 in 5.0 mi South 17.3 mph 25.3 mph N/A   Clear
3:12 AM 19.0 °F 4.0 °F 15.3 °F 85% 30.13 in 5.0 mi South 17.3 mph 24.2 mph N/A   Clear
3:33 AM 19.0 °F 5.6 °F 15.3 °F 85% 30.12 in 7.0 mi South 13.8 mph 17.3 mph N/A   Clear
3:52 AM 19.2 °F 6.4 °F 15.6 °F 86% 30.11 in 5.0 mi South 12.7 mph 20.7 mph N/A   Clear
4:12 AM 19.4 °F 6.0 °F 15.8 °F 86% 30.10 in 5.0 mi South 13.8 mph 21.9 mph N/A   Clear
4:33 AM 19.8 °F 7.1 °F 16.3 °F 87% 30.10 in 5.0 mi South 12.7 mph 18.4 mph N/A   Mostly Cloudy
4:52 AM 20.1 °F 6.4 °F 16.7 °F 87% 30.09 in 5.0 mi South 15.0 mph 19.6 mph N/A   Overcast
5:12 AM 20.3 °F 7.7 °F 17.1 °F 87% 30.08 in 5.0 mi South 12.7 mph - N/A   Overcast
5:32 AM 20.7 °F 7.6 °F 17.2 °F 87% 30.08 in 5.0 mi South 13.8 mph 19.6 mph N/A   Mostly Cloudy
5:52 AM 20.8 °F 7.9 °F 17.4 °F 87% 30.06 in 5.0 mi South 13.8 mph 25.3 mph N/A   Scattered Clouds
6:12 AM 20.8 °F 8.4 °F 17.4 °F 87% 30.05 in 5.0 mi South 12.7 mph 23.0 mph N/A   Clear
6:32 AM 21.2 °F 6.4 °F 17.6 °F 86% 30.04 in 4.0 mi South 18.4 mph 24.2 mph N/A   Clear
6:52 AM 21.6 °F 6.9 °F 18.1 °F 87% 30.03 in 3.0 mi South 18.4 mph 25.3 mph N/A   Clear
7:12 AM 21.7 °F 5.9 °F 18.3 °F 87% 30.02 in 3.0 mi South 21.9 mph 27.6 mph N/A   Clear
7:33 AM 21.9 °F 6.2 °F 18.5 °F 87% 30.00 in 2.0 mi South 21.9 mph 33.4 mph N/A   Clear
7:52 AM 21.9 °F 5.1 °F 18.5 °F 87% 29.98 in 1.5 mi South 25.3 mph 33.4 mph N/A Snow Light Snow
8:12 AM 22.1 °F 6.0 °F 18.5 °F 86% 30.00 in 1.5 mi South 23.0 mph 31.1 mph N/A   Mist
8:33 AM 22.6 °F 7.1 °F 19.0 °F 86% 29.98 in 1.8 mi South 21.9 mph 29.9 mph N/A Snow Light Snow
8:53 AM 23.0 °F 8.3 °F 19.2 °F 85% 29.98 in 2.0 mi South 19.6 mph 28.8 mph N/A   Mostly Cloudy
9:13 AM 23.9 °F 8.8 °F 19.9 °F 85% 29.96 in 2.0 mi South 21.9 mph 31.1 mph N/A   Mostly Cloudy
9:32 AM 24.8 °F 10.0 °F 20.3 °F 83% 29.95 in 1.8 mi South 21.9 mph 29.9 mph N/A   Haze
9:52 AM 25.7 °F 11.2 °F 21.0 °F 82% 29.94 in 1.5 mi South 21.9 mph 33.4 mph N/A Snow Light Snow
10:12 AM 26.6 °F 13.8 °F 21.7 °F 82% 29.93 in 1.5 mi South 17.3 mph 33.4 mph N/A   Haze
10:32 AM 27.5 °F 13.2 °F 22.1 °F 80% 29.91 in 1.8 mi South 23.0 mph 33.4 mph N/A   Haze
10:52 AM 28.2 °F 13.9 °F 22.6 °F 80% 29.90 in 1.5 mi South 24.2 mph 34.5 mph N/A   Haze
11:12 AM 28.8 °F 14.9 °F 23.0 °F 79% 29.90 in 1.8 mi South 23.0 mph 35.7 mph N/A   Haze
11:32 AM 29.7 °F 15.5 °F 23.7 °F 79% 29.90 in 1.8 mi South 25.3 mph 33.4 mph N/A   Haze
11:53 AM 30.4 °F 17.0 °F 24.3 °F 78% 29.89 in 2.5 mi South 23.0 mph 33.4 mph N/A   Haze
12:12 PM 31.1 °F 18.6 °F 24.8 °F 77% 29.88 in 2.5 mi South 20.7 mph 27.6 mph N/A   Haze
12:32 PM 31.3 °F 18.5 °F 25.2 °F 78% 29.86 in 2.0 mi South 21.9 mph 38.0 mph N/A   Haze
12:53 PM 31.6 °F 18.4 °F 25.7 °F 79% 29.84 in 1.8 mi South 24.2 mph 32.2 mph 0.01 in   Haze
1:12 PM 31.8 °F 18.4 °F 25.9 °F 79% 29.83 in 2.0 mi South 25.3 mph 33.4 mph N/A   Haze
1:32 PM 32.0 °F 18.4 °F 26.4 °F 80% 29.81 in 2.0 mi South 26.5 mph 34.5 mph N/A   Haze
1:52 PM 31.8 °F 19.3 °F 26.6 °F 81% 29.81 in 2.0 mi SSW 21.9 mph 33.4 mph N/A   Haze
2:12 PM 32.0 °F 18.6 °F 27.0 °F 82% 29.79 in 2.0 mi SSW 25.3 mph 33.4 mph N/A   Haze
2:32 PM 32.2 °F 18.4 °F 27.3 °F 82% 29.78 in 1.8 mi SSW 27.6 mph 36.8 mph N/A   Haze
2:52 PM 32.5 °F 19.6 °F 27.7 °F 82% 29.78 in 2.0 mi SSW 24.2 mph 34.5 mph N/A   Haze
3:13 PM 32.5 °F 20.8 °F 27.9 °F 83% 29.79 in 3.0 mi South 19.6 mph 29.9 mph N/A   Haze
3:32 PM 34.0 °F 23.8 °F 28.2 °F 79% 29.80 in 4.0 mi South 16.1 mph 25.3 mph N/A   Haze
3:53 PM 33.6 °F 24.1 °F 28.2 °F 81% 29.82 in 4.0 mi SSW 13.8 mph 23.0 mph N/A   Haze
4:12 PM 33.3 °F 23.7 °F 28.4 °F 82% 29.80 in 4.0 mi South 13.8 mph 25.3 mph N/A   Haze
4:32 PM 32.9 °F 21.6 °F 28.4 °F 84% 29.79 in 4.0 mi South 18.4 mph 24.2 mph N/A   Haze
4:53 PM 32.5 °F 23.7 °F 28.4 °F 85% 29.80 in 4.0 mi South 11.5 mph 20.7 mph N/A   Haze
5:12 PM 32.5 °F 23.2 °F 28.4 °F 85% 29.79 in 4.0 mi South 12.7 mph 20.7 mph N/A   Haze
5:33 PM 32.5 °F 21.9 °F 28.8 °F 86% 29.78 in 4.0 mi South 16.1 mph 21.9 mph N/A   Clear
5:52 PM 32.4 °F 22.1 °F 28.8 °F 87% 29.78 in 4.0 mi South 15.0 mph 19.6 mph N/A   Clear
6:12 PM 32.4 °F 21.7 °F 28.8 °F 87% 29.77 in 5.0 mi South 16.1 mph 20.7 mph N/A   Clear
6:33 PM 32.4 °F 22.1 °F 28.8 °F 87% 29.76 in 5.0 mi South 15.0 mph 23.0 mph N/A   Clear
6:53 PM 32.4 °F 22.5 °F 28.9 °F 87% 29.75 in 5.0 mi South 13.8 mph 19.6 mph N/A   Clear
7:12 PM 32.9 °F 22.8 °F 28.9 °F 85% 29.75 in 7.0 mi South 15.0 mph 21.9 mph N/A   Clear
7:32 PM 32.9 °F 21.6 °F 28.9 °F 85% 29.73 in 7.0 mi South 18.4 mph 24.2 mph N/A   Clear
7:52 PM 32.9 °F 21.6 °F 28.8 °F 85% 29.71 in 7.0 mi South 18.4 mph 25.3 mph N/A   Clear
8:12 PM 32.9 °F 21.0 °F 28.8 °F 85% 29.72 in 7.0 mi SSW 20.7 mph 29.9 mph N/A   Clear
8:33 PM 32.9 °F 21.0 °F 28.8 °F 85% 29.72 in 7.0 mi SSW 20.7 mph 29.9 mph N/A   Clear
8:52 PM 32.9 °F 20.7 °F 28.8 °F 85% 29.72 in 7.0 mi SSW 21.9 mph 28.8 mph N/A   Clear
9:12 PM 33.1 °F 20.9 °F 28.8 °F 84% 29.71 in 5.0 mi SSW 21.9 mph 31.1 mph N/A   Clear
9:33 PM 33.3 °F 21.5 °F 28.8 °F 84% 29.71 in 5.0 mi SSW 20.7 mph 26.5 mph N/A   Clear
9:52 PM 33.8 °F 21.6 °F 29.1 °F 83% 29.70 in 5.0 mi SSW 23.0 mph 32.2 mph N/A   Haze
10:12 PM 33.6 °F 21.3 °F 29.1 °F 84% 29.70 in 5.0 mi SSW 23.0 mph 29.9 mph N/A   Haze
10:32 PM 33.8 °F 20.8 °F 29.3 °F 84% 29.69 in 5.0 mi SSW 26.5 mph 35.7 mph N/A   Haze
10:53 PM 34.3 °F 21.8 °F 29.7 °F 83% 29.69 in 5.0 mi SSW 25.3 mph 33.4 mph N/A   Haze
11:12 PM 34.2 °F 22.3 °F 29.7 °F 84% 29.68 in 5.0 mi SSW 21.9 mph 29.9 mph N/A   Haze
11:32 PM 34.2 °F 21.8 °F 29.8 °F 84% 29.68 in 5.0 mi SSW 24.2 mph 29.9 mph N/A   Clear
11:53 PM 34.0 °F 20.8 °F 30.0 °F 85% 29.67 in 5.0 mi SSW 27.6 mph - N/A   Clear